Date,TemperatureHighF,TemperatureAvgF,TemperatureLowF,DewpointHighF,DewpointAvgF,DewpointLowF,HumidityHigh,HumidityAvg,HumidityLow,PressureMaxIn,PressureMinIn,WindSpeedMaxMPH,WindSpeedAvgMPH,GustSpeedMaxMPH,PrecipitationSumIn
2012-12-1,64,60,57,61,58,55,94,90,83,30.12,30.01,12,2,12,0.17
2012-12-2,62,57,48,61,55,46,95,92,82,30.21,29.86,11,1,11,1.11
2012-12-3,58,50,42,51,47,40,95,88,71,30.27,30.18,5,0,5,0.00
2012-12-4,62,56,49,56,51,46,94,85,72,30.30,30.21,8,1,8,0.00
2012-12-5,66,61,59,63,58,54,94,89,79,30.24,30.15,7,1,7,0.38
2012-12-6,60,57,49,58,52,45,94,86,73,30.21,30.15,7,0,7,0.04
2012-12-7,60,51,44,54,46,40,94,85,68,30.21,30.15,6,0,6,0.00
2012-12-8,57,48,39,49,42,36,92,82,65,30.18,30.12,4,0,4,0.00
2012-12-9,62,50,42,46,42,38,90,74,51,30.27,30.18,6,0,6,0.00
2012-12-10,64,52,43,48,43,38,86,73,52,30.30,30.18,6,0,6,0.00
2012-12-11,58,49,40,52,44,36,88,82,77,30.18,29.95,8,1,8,0.00
2012-12-12,54,49,41,49,44,37,92,84,70,29.98,29.92,6,0,6,0.08
2012-12-13,51,43,37,43,38,34,94,84,67,30.01,29.92,6,0,6,0.00
2012-12-14,52,44,36,44,39,33,89,81,69,30.09,29.89,6,0,6,0.00
2012-12-15,48,44,36,45,40,33,92,87,80,30.15,30.06,8,1,8,0.17
2012-12-16,58,51,44,52,47,41,94,86,77,30.18,30.09,6,0,6,0.00
2012-12-17,59,54,46,55,50,42,94,87,82,30.15,30.06,8,1,8,0.08
2012-12-18,52,45,38,42,36,30,89,73,55,30.27,30.06,10,1,10,0.00
2012-12-19,49,39,31,35,30,27,85,69,47,30.39,30.27,6,0,6,0.00
2012-12-20,57,45,32,39,33,26,78,63,51,30.30,30.09,8,1,8,0.00
2012-12-21,60,54,48,51,44,34,85,69,51,30.09,29.98,14,4,14,0.04
2012-12-22,57,52,50,56,50,46,98,90,80,30.18,29.92,11,2,11,0.59
2012-12-23,54,52,46,53,50,46,98,94,83,30.18,29.95,12,2,12,1.74
2012-12-24,51,45,40,50,45,39,98,98,98,30.27,30.09,6,0,6,0.00
2012-12-25,52,45,39,50,44,38,98,96,83,30.21,29.89,16,1,16,0.33
2012-12-26,52,47,44,52,46,43,98,98,96,30.21,29.95,6,1,6,0.30
2012-12-27,50,44,38,46,42,36,98,94,84,30.24,30.18,6,0,6,0.00
2012-12-28,49,42,34,46,40,34,98,93,84,30.27,30.09,6,0,6,0.03
2012-12-29,49,44,37,47,42,36,98,94,86,30.15,30.06,7,1,7,0.14
2012-12-30,50,40,34,46,38,32,98,91,81,30.24,30.09,6,1,6,0.00
2012-12-31,48,40,31,37,34,29,95,81,64,30.36,30.24,6,0,6,0.00